Powrót do katalogu

STARLINK-2151

AktywnyŁącznośćVLEO
NORAD 48556·PAYLOAD·🇺🇸 United States

Wystrzelony May 15, 2021 z Cape Canaveral Space Force Station

Loading…

Następne Przeloty (najbliższe 24 godziny)

TLE

ŚwieżeSource: CelesTrak SupGP

Epoka: Sep 14, 2026, 21:12 UTC

1 48556C 21041D   26257.88381944 -.00030574  00000+0 -98283-3 0  2573
2 48556  53.1600 341.9809 0001087  89.9966 110.3607 15.31729419    13

Śledź STARLINK-2151 w czasie rzeczywistym z AllMySat

Download on the App Store